Flag for Poland Weather past 2 weeks in Kraków, Poland

Now
63 °F

Sunny.


Feels Like: 63 °F
Forecast: 46 / 65 °F
Wind: 15 mph from East

Location: Krakow Airport


UV Index: 3 (Moderate)

Visibility: 10 mi


Pressure: 29.89 "Hg

Humidity: 64%

Dew point: 50 °F

Location of KrakówLocation

Historic Weather in Kraków

°F

Kraków temperature yesterday

Maximum temperature yesterday: 64 °F (at 3:30 PM)
Minimum temperature yesterday: 34 °F (at 4:30 AM)
Average temperature yesterday: 49 °F

Past Weeks' High & Low Weather Summary

 TemperatureHumidityPressure
High72 °F (Apr 8, 12:30 PM)100% (Apr 6, 5:30 AM)30.33 "Hg (Apr 6, 5:30 AM)
Low30 °F (Apr 13, 4:00 AM)36% (Apr 8, 12:30 PM)29.68 "Hg (Apr 14, 12:30 PM)
Average46 °F78%29.99 "Hg
* Reported Apr 4 11:00 AM — Apr 19 11:30 AM, Kraków, Weather by CustomWeather, © 2014

Note: Actual official high and low records may vary slightly from our data, if they occured in-between our weather recording intervals... More about our weather records

Advertising

Historic Weather Conditions — Data for Previous 24 hours

 ConditionsComfort  
Time TempWeatherWind HumidityBarometerVisibility
11:30 AM
Apr 19
61 °FSunny.12 mph63%29.89 "Hg10 mi
11:00 AM59 °FPassing clouds.12 mph68%29.89 "HgN/A
10:30 AM57 °FPassing clouds.9 mph72%29.92 "HgN/A
10:00 AM54 °FPassing clouds.5 mph88%29.92 "HgN/A
9:30 AM48 °FClear.No wind100%29.89 "Hg4 mi
9:00 AM46 °FFog.1 mph100%29.92 "Hg1 mi
8:30 AM46 °FSleet. Cloudy.1 mph100%29.89 "Hg1 mi
8:00 AM45 °FFog.2 mph100%29.89 "Hg0 mi
7:30 AM43 °FFog.No wind100%29.89 "Hg0 mi
7:00 AM43 °FFog.No wind100%29.89 "Hg0 mi
6:30 AM39 °FFog.No wind100%29.89 "Hg0 mi
6:00 AM39 °FFog.No wind100%29.89 "Hg0 mi
5:30 AM41 °FFog.No wind100%29.86 "Hg0 mi
5:00 AM41 °FFog.No wind100%29.86 "Hg0 mi
4:30 AM41 °FFog.No wind100%29.86 "Hg0 mi
4:00 AM41 °FFog.No wind100%29.86 "Hg0 mi
3:30 AM43 °FFog.No wind100%29.86 "Hg0 mi
3:00 AM43 °FFog.No wind100%29.86 "Hg0 mi
2:30 AM45 °FFog.No wind100%29.86 "Hg1 mi
2:00 AM43 °FFog.1 mph100%29.83 "Hg1 mi
1:30 AM46 °FFog.No wind100%29.83 "Hg3 mi
1:00 AM48 °FClear.No wind94%29.83 "Hg4 mi
12:30 AM48 °FClear.No wind94%29.83 "Hg4 mi
12:00 AM48 °FClear.No wind94%29.83 "Hg10 mi
11:30 PM
Apr 18
50 °FClear.No wind94%29.83 "Hg10 mi
11:00 PM52 °FThundershowers. Passing clouds.No wind88%29.83 "HgN/A
10:30 PM54 °FPassing clouds.No wind82%29.80 "HgN/A
10:00 PM54 °FPassing clouds.2 mph82%29.80 "HgN/A
9:30 PM54 °FThundershowers. Passing clouds.5 mph82%29.80 "HgN/A
9:00 PM54 °FPassing clouds.6 mph82%29.80 "HgN/A
8:30 PM55 °FScattered clouds.5 mph77%29.80 "HgN/A
8:00 PM55 °FScattered clouds.3 mph82%29.80 "HgN/A
7:30 PM57 °FScattered clouds.3 mph72%29.77 "HgN/A
7:00 PM57 °FScattered clouds.6 mph72%29.77 "HgN/A
6:30 PM59 °FSprinkles. Scattered clouds.6 mph68%29.77 "HgN/A
6:00 PM61 °FScattered clouds.9 mph55%29.77 "HgN/A
5:30 PM63 °FScattered clouds.8 mph52%29.77 "HgN/A
5:00 PM63 °FPassing clouds.7 mph56%29.77 "HgN/A
4:30 PM63 °FPassing clouds.7 mph52%29.77 "HgN/A
4:00 PM63 °FPassing clouds.6 mph52%29.77 "HgN/A
3:30 PM64 °FPassing clouds.8 mph52%29.77 "HgN/A
3:00 PM63 °FPassing clouds.7 mph49%29.77 "HgN/A
2:30 PM63 °FPassing clouds.7 mph49%29.77 "HgN/A
2:00 PM63 °FPassing clouds.5 mph49%29.77 "HgN/A
1:30 PM61 °FSunny.2 mph48%29.77 "Hg10 mi
1:00 PM59 °FPassing clouds.5 mph51%29.80 "HgN/A
12:30 PM59 °FSunny.2 mph48%29.80 "Hg10 mi
12:00 PM59 °FSunny.2 mph51%29.80 "Hg10 mi
Weather by CustomWeather, © 2014

See weather overview